FW1302 Weather Reports


time (UTC)temp
C
wind
direction
speed
KPH
gust
KPH
rain 1hr
cm
rain 24hr
cm
rain mn
cm
humidity
%
barometer
mb
20260506002022 17 213 20.9 32.2 0.00 0.00 0.00 66 1024.5
20260506001022 18 226 29.0 35.4 0.00 0.00 0.00 64 1024.6
20260506000022 18 222 25.7 33.8 0.00 0.00 0.00 65 1024.7
20260505235021 18 221 24.1 32.2 0.00 0.00 0.00 65 1024.8
20260505234921 18 225 27.4 35.4 0.00 0.00 0.00 65 1024.7
20260505233921 18 225 32.2 38.6 0.00 0.00 0.00 64 1024.9
20260505232922 18 226 25.7 32.2 0.00 0.00 0.00 65 1024.8
20260505231921 18 224 22.5 29.0 0.00 0.00 0.00 65 1024.7
20260505230922 18 221 25.7 33.8 0.00 0.00 0.00 65 1024.8
20260505230020 18 226 22.5 30.6 0.00 0.00 0.00 65 1025.0
20260505224120 18 219 29.0 33.8 0.00 0.00 0.00 66 1025.0
20260505224021 18 225 20.9 29.0 0.00 0.00 0.00 66 1025.1
20260505223120 17 222 19.3 30.6 0.00 0.00 0.00 66 1025.2
20260505222121 17 210 22.5 29.0 0.00 0.00 0.00 66 1025.2
20260505221123 17 217 24.1 33.8 0.00 0.00 0.00 66 1025.3
20260505220221 17 225 19.3 24.1 0.00 0.00 0.00 65 1025.5
20260505220120 17 234 24.1 37.0 0.00 0.00 0.00 66 1025.1
20260505214122 17 229 27.4 40.2 0.00 0.00 0.00 66 1025.5
20260505213121 17 226 25.7 37.0 0.00 0.00 0.00 65 1025.6
20260505212121 17 225 20.9 27.4 0.00 0.00 0.00 67 1025.7
20260505211122 17 230 20.9 29.0 0.00 0.00 0.00 67 1025.6
20260505210122 17 227 25.7 30.6 0.00 0.00 0.00 66 1025.9
20260505205122 17 224 22.5 27.4 0.00 0.00 0.00 65 1025.8
20260505204121 17 223 22.5 33.8 0.00 0.00 0.00 64 1026.0
20260505203120 17 226 24.1 33.8 0.00 0.00 0.00 65 1025.9
20260505202121 17 225 27.4 37.0 0.00 0.00 0.00 65 1026.2
20260505201120 17 220 17.7 24.1 0.00 0.00 0.00 67 1026.3
20260505201020 17 227 19.3 29.0 0.00 0.00 0.00 67 1026.2
20260505195120 16 220 19.3 25.7 0.00 0.00 0.00 68 1026.3
20260505194121 16 225 19.3 25.7 0.00 0.00 0.00 69 1026.3
20260505193022 16 206 19.3 32.2 0.00 0.00 0.00 70 1026.5
20260505191020 16 220 14.5 19.3 0.00 0.00 0.00 70 1026.6
20260505190021 16 224 22.5 29.0 0.00 0.00 0.00 70 1026.5
20260505185021 15 225 24.1 33.8 0.00 0.00 0.00 71 1026.6
20260505184020 15 226 19.3 29.0 0.00 0.00 0.00 71 1026.7
20260505183022 15 206 27.4 40.2 0.00 0.00 0.00 71 1026.6
20260505182120 15 227 20.9 32.2 0.00 0.00 0.00 72 1026.8
20260505181121 15 226 20.9 27.4 0.00 0.00 0.00 73 1026.7
20260505180221 15 222 19.3 24.1 0.00 0.00 0.00 74 1026.9
20260505180123 15 225 19.3 29.0 0.00 0.00 0.00 74 1026.7
20260505175220 15 221 20.9 32.2 0.00 0.00 0.00 75 1026.7
20260505174221 14 221 17.7 24.1 0.00 0.00 0.00 77 1026.7
20260505173222 14 211 19.3 24.1 0.00 0.00 0.00 78 1026.7
20260505171222 14 226 20.9 30.6 0.00 0.00 0.00 79 1026.7
20260505170221 13 212 19.3 25.7 0.00 0.00 0.00 80 1026.8
20260505165320 13 224 17.7 24.1 0.00 0.00 0.00 81 1026.6
20260505164322 13 224 19.3 24.1 0.00 0.00 0.00 81 1026.6
20260505163322 13 217 14.5 22.5 0.00 0.00 0.00 81 1026.7
20260505162322 13 218 14.5 22.5 0.00 0.00 0.00 81 1026.6
20260505161322 13 208 17.7 25.7 0.00 0.00 0.00 81 1026.6
20260505160321 13 221 14.5 20.9 0.00 0.00 0.00 82 1026.7
20260505153322 13 215 16.1 27.4 0.00 0.00 0.00 82 1026.6
20260505152322 13 220 17.7 24.1 0.00 0.00 0.00 81 1026.6
20260505151323 13 226 17.7 27.4 0.00 0.00 0.00 81 1026.1
20260505150421 13 225 16.1 19.3 0.00 0.00 0.00 82 1026.4
20260505140321 13 221 11.3 14.5 0.00 0.00 0.00 82 1025.8
20260505130227 13 225 16.1 20.9 0.00 0.00 0.00 81 1025.6
20260505124420 13 221 17.7 24.1 0.00 0.00 0.00 81 1025.4
20260505124321 13 224 14.5 20.9 0.00 0.00 0.00 81 1025.5
20260505123420 13 219 16.1 22.5 0.00 0.00 0.00 80 1025.4
20260505122420 13 224 16.1 19.3 0.00 0.00 0.00 81 1025.3
20260505121421 13 226 17.7 20.9 0.00 0.00 0.00 80 1025.4
20260505120422 13 223 17.7 20.9 0.00 0.00 0.00 80 1025.4
20260505115521 13 234 16.1 22.5 0.00 0.00 0.00 79 1025.2
20260505114521 13 226 19.3 29.0 0.00 0.00 0.00 79 1025.4
20260505113620 13 225 20.9 29.0 0.00 0.00 0.00 79 1025.3
20260505112622 14 226 14.5 19.3 0.00 0.00 0.00 77 1025.2
20260505111620 14 227 16.1 22.5 0.00 0.00 0.00 78 1025.1
20260505111521 14 225 20.9 25.7 0.00 0.00 0.00 78 1025.0
20260505110620 14 226 20.9 27.4 0.00 0.00 0.00 76 1025.0
20260505101720 15 230 16.1 22.5 0.00 0.00 0.00 76 1024.3
20260505100722 15 225 20.9 32.2 0.00 0.00 0.00 75 1024.4
20260505095722 15 225 22.5 32.2 0.00 0.00 0.00 76 1024.2
20260505093721 15 226 22.5 33.8 0.00 0.00 0.00 75 1024.0
20260505093622 15 224 24.1 33.8 0.00 0.00 0.00 75 1024.1
20260505090721 15 225 19.3 25.7 0.00 0.00 0.00 74 1023.8
20260505085820 15 232 19.3 29.0 0.00 0.00 0.00 74 1023.8
20260505084820 15 223 20.9 27.4 0.00 0.00 0.00 74 1023.6
20260505083822 16 225 20.9 24.1 0.00 0.00 0.00 72 1023.5
20260505081919 16 223 19.3 27.4 0.00 0.00 0.00 70 1023.3
20260505080920 16 231 22.5 29.0 0.00 0.00 0.00 69 1023.1
20260505075920 17 226 22.5 27.4 0.00 0.00 0.00 70 1023.0
20260505074920 17 234 19.3 25.7 0.00 0.00 0.00 69 1022.9
20260505074822 17 226 24.1 37.0 0.00 0.00 0.00 69 1023.0
20260505073821 17 225 19.3 27.4 0.00 0.00 0.00 70 1022.8
20260505072919 17 223 16.1 22.5 0.00 0.00 0.00 71 1022.8
20260505071920 17 227 14.5 19.3 0.00 0.00 0.00 71 1022.7
20260505070921 17 226 19.3 27.4 0.00 0.00 0.00 70 1022.4
20260505065930 18 227 19.3 24.1 0.00 0.00 0.00 70 1022.2
20260505064930 18 223 17.7 27.4 0.00 0.00 0.00 70 1022.1
20260505063930 18 225 19.3 25.7 0.00 0.00 0.00 70 1021.9
20260505063028 18 225 16.1 20.9 0.00 0.00 0.00 70 1021.9
20260505062032 18 225 19.3 22.5 0.00 0.00 0.00 71 1021.8
20260505055131 19 226 17.7 24.1 0.00 0.00 0.00 69 1021.9
20260505054130 19 225 16.1 19.3 0.00 0.00 0.00 69 1021.7
20260505053229 19 225 16.1 19.3 0.00 0.00 0.00 68 1021.7
20260505052230 19 225 16.1 19.3 0.00 0.00 0.00 69 1021.6
20260505050330 19 226 17.7 20.9 0.00 0.00 0.00 68 1021.5
20260505050229 19 226 17.7 25.7 0.00 0.00 0.00 68 1021.6
20260505041132 19 225 12.9 14.5 0.00 0.00 0.00 66 1021.0
20260505035231 20 223 16.1 20.9 0.00 0.00 0.00 64 1020.8
20260505034232 20 224 17.7 22.5 0.00 0.00 0.00 65 1020.6
20260505033328 20 225 14.5 17.7 0.00 0.00 0.00 64 1020.6
20260505032331 20 224 16.1 19.3 0.00 0.00 0.00 63 1020.3
20260505032230 20 227 14.5 17.7 0.00 0.00 0.00 63 1020.3
20260505031229 20 226 16.1 20.9 0.00 0.00 0.00 62 1020.3
20260505030230 20 226 16.1 20.9 0.00 0.00 0.00 62 1020.0
20260505025229 21 223 16.1 20.9 0.00 0.00 0.00 60 1020.1
20260505023229 21 226 17.7 22.5 0.00 0.00 0.00 59 1019.6
20260505021229 21 223 19.3 27.4 0.00 0.00 0.00 56 1019.7
20260505020229 21 221 25.7 33.8 0.00 0.00 0.00 56 1019.5
20260505015228 22 226 22.5 25.7 0.00 0.00 0.00 56 1019.7
20260505015131 22 225 24.1 33.8 0.00 0.00 0.00 55 1019.7
20260505014130 22 225 22.5 30.6 0.00 0.00 0.00 56 1019.6
20260505014030 22 226 24.1 30.6 0.00 0.00 0.00 55 1019.7
20260505013129 22 225 22.5 29.0 0.00 0.00 0.00 55 1019.7
20260505012229 22 222 22.5 30.6 0.00 0.00 0.00 56 1019.7
20260505011328 21 223 27.4 35.4 0.00 0.00 0.00 56 1019.6
20260505010329 21 223 25.7 33.8 0.00 0.00 0.00 56 1019.7